Schneifelwetter: Wetterstation Hallschlag, 537 m . NN
Wetterdaten: Freitag, 24.12.2010
Datum Zeit Temp. A. Feuchte A. Luftdruck Regen Wind Richtung Richtung Sonnenschein Helligkeit T Regen Taupunkt Windchill
24.12.2010 00:00 -3,9 C 97 % 997 hPa 0,0 l/m 0,0 km/h (0 Bft) N-NO 20 0 min 0 lux 0,00 min -4,3 C -3,9 C
24.12.2010 00:15 -4,0 C 97 % 997 hPa 0,0 l/m 0,0 km/h (0 Bft) N-NO 20 0 min 0 lux 0,00 min -4,4 C -4,0 C
24.12.2010 00:30 -4,1 C 97 % 997 hPa 0,0 l/m 0,0 km/h (0 Bft) N-NO 20 0 min 0 lux 0,00 min -4,5 C -4,1 C
24.12.2010 00:45 -4,2 C 97 % 998 hPa 0,3 l/m 0,0 km/h (0 Bft) N-NO 20 0 min 0 lux 15,00 min -4,6 C -4,2 C
24.12.2010 01:00 -4,2 C 97 % 998 hPa 0,0 l/m 0,0 km/h (0 Bft) N-NO 20 0 min 0 lux 0,00 min -4,6 C -4,2 C
24.12.2010 01:15 -4,2 C 97 % 998 hPa 0,0 l/m 0,0 km/h (0 Bft) N-NO 20 0 min 0 lux 0,00 min -4,6 C -4,2 C
24.12.2010 01:30 -4,3 C 98 % 998 hPa 0,3 l/m 0,0 km/h (0 Bft) N-NO 20 0 min 0 lux 15,00 min -4,6 C -4,3 C
24.12.2010 01:45 -4,4 C 98 % 998 hPa 0,3 l/m 0,0 km/h (0 Bft) N-NO 20 0 min 0 lux 15,00 min -4,7 C -4,4 C
24.12.2010 02:00 -4,4 C 98 % 998 hPa 0,0 l/m 0,0 km/h (0 Bft) N-NO 20 0 min 0 lux 0,00 min -4,7 C -4,4 C
24.12.2010 02:15 -4,4 C 98 % 998 hPa 0,3 l/m 0,0 km/h (0 Bft) N-NO 15 0 min 0 lux 15,00 min -4,7 C -4,4 C
24.12.2010 02:30 -4,5 C 98 % 998 hPa 0,0 l/m 0,0 km/h (0 Bft) N-NO 15 0 min 0 lux 0,00 min -4,8 C -4,5 C
24.12.2010 02:45 -4,5 C 97 % 998 hPa 0,0 l/m 0,0 km/h (0 Bft) N-NO 15 0 min 0 lux 0,00 min -4,9 C -4,5 C
24.12.2010 03:00 -4,5 C 97 % 998 hPa 0,3 l/m 0,0 km/h (0 Bft) N-NO 15 0 min 0 lux 15,00 min -4,9 C -4,5 C
24.12.2010 03:15 -4,6 C 97 % 998 hPa 0,0 l/m 0,0 km/h (0 Bft) N-NO 15 0 min 0 lux 0,00 min -5,0 C -4,6 C
24.12.2010 03:30 -4,6 C 96 % 998 hPa 0,0 l/m 0,0 km/h (0 Bft) N-NO 15 0 min 0 lux 0,00 min -5,1 C -4,6 C
24.12.2010 03:45 -4,7 C 96 % 998 hPa 0,0 l/m 0,0 km/h (0 Bft) N-NO 15 0 min 0 lux 0,00 min -5,2 C -4,7 C
24.12.2010 04:00 -4,7 C 96 % 998 hPa 0,0 l/m 0,0 km/h (0 Bft) N-NO 15 0 min 0 lux 0,00 min -5,2 C -4,7 C
24.12.2010 04:15 -4,8 C 96 % 998 hPa 0,0 l/m 0,0 km/h (0 Bft) N-NO 15 0 min 0 lux 0,00 min -5,3 C -4,8 C
24.12.2010 04:30 -4,9 C 96 % 998 hPa 0,0 l/m 0,0 km/h (0 Bft) N-NO 20 0 min 0 lux 0,00 min -5,4 C -4,9 C
24.12.2010 04:45 -4,9 C 96 % 998 hPa 0,0 l/m 0,0 km/h (0 Bft) N-NO 20 0 min 0 lux 0,00 min -5,4 C -4,9 C
24.12.2010 05:00 -5,0 C 96 % 998 hPa 0,0 l/m 0,0 km/h (0 Bft) N-NO 20 0 min 0 lux 0,00 min -5,5 C -5,0 C
24.12.2010 05:15 -5,0 C 96 % 998 hPa 0,0 l/m 0,0 km/h (0 Bft) N-NO 20 0 min 0 lux 0,00 min -5,5 C -5,0 C
24.12.2010 05:30 -5,0 C 97 % 998 hPa 0,0 l/m 0,0 km/h (0 Bft) N-NO 20 0 min 0 lux 0,00 min -5,4 C -5,0 C
24.12.2010 05:45 -5,1 C 96 % 998 hPa 0,0 l/m 0,0 km/h (0 Bft) N-NO 20 0 min 0 lux 0,00 min -5,6 C -5,1 C
24.12.2010 06:00 -5,1 C 96 % 999 hPa 0,0 l/m 0,0 km/h (0 Bft) N-NO 20 0 min 0 lux 0,00 min -5,6 C -5,1 C
24.12.2010 06:15 -5,1 C 96 % 999 hPa 0,0 l/m 0,0 km/h (0 Bft) N-NO 20 0 min 0 lux 0,00 min -5,6 C -5,1 C
24.12.2010 06:30 -5,1 C 96 % 999 hPa 0,0 l/m 0,0 km/h (0 Bft) N-NO 20 0 min 0 lux 0,00 min -5,6 C -5,1 C
24.12.2010 06:45 -5,1 C 96 % 999 hPa 0,0 l/m 0,0 km/h (0 Bft) N-NO 20 0 min 0 lux 0,00 min -5,6 C -5,1 C
24.12.2010 07:00 -5,1 C 96 % 999 hPa 0,0 l/m 0,0 km/h (0 Bft) N-NO 20 0 min 0 lux 0,00 min -5,6 C -5,1 C
24.12.2010 07:15 -5,1 C 96 % 999 hPa 0,0 l/m 0,0 km/h (0 Bft) N-NO 20 0 min 0 lux 0,00 min -5,6 C -5,1 C
24.12.2010 07:30 -5,1 C 96 % 999 hPa 0,0 l/m 0,0 km/h (0 Bft) N-NO 20 0 min 0 lux 0,00 min -5,6 C -5,1 C
24.12.2010 07:45 -5,3 C 95 % 999 hPa 0,0 l/m 0,0 km/h (0 Bft) N-NO 20 0 min 0 lux 0,00 min -6,0 C -5,3 C
24.12.2010 08:00 -5,3 C 95 % 999 hPa 0,0 l/m 0,0 km/h (0 Bft) N-NO 20 0 min 0 lux 0,00 min -6,0 C -5,3 C
24.12.2010 08:15 -5,3 C 95 % 1000 hPa 0,0 l/m 0,0 km/h (0 Bft) N-NO 20 0 min 0 lux 0,00 min -6,0 C -5,3 C
24.12.2010 08:30 -5,3 C 95 % 1000 hPa 0,0 l/m 0,0 km/h (0 Bft) N-NO 20 0 min 134 lux 0,00 min -6,0 C -5,3 C
24.12.2010 08:45 -5,3 C 95 % 1000 hPa 0,0 l/m 0,0 km/h (0 Bft) N-NO 20 0 min 378 lux 0,00 min -6,0 C -5,3 C
24.12.2010 09:00 -5,3 C 95 % 1000 hPa 0,0 l/m 0,0 km/h (0 Bft) N-NO 20 0 min 975 lux 0,00 min -6,0 C -5,3 C
24.12.2010 09:14 -5,3 C 95 % 1001 hPa 0,0 l/m 0,0 km/h (0 Bft) N-NO 20 0 min 1,67 klux 0,00 min -6,0 C -5,3 C
24.12.2010 09:30 -5,3 C 95 % 1001 hPa 0,0 l/m 0,0 km/h (0 Bft) N-NO 20 0 min 2,69 klux 0,00 min -6,0 C -5,3 C
24.12.2010 09:45 -5,3 C 95 % 1001 hPa 0,0 l/m 0,0 km/h (0 Bft) N-NO 20 0 min 3,51 klux 0,00 min -6,0 C -5,3 C
24.12.2010 10:00 -5,3 C 95 % 1001 hPa 0,0 l/m 0,0 km/h (0 Bft) N-NO 20 0 min 3,96 klux 0,00 min -6,0 C -5,3 C
24.12.2010 10:15 -5,1 C 95 % 1001 hPa 0,0 l/m 0,0 km/h (0 Bft) N-NO 20 0 min 4,29 klux 0,00 min -5,8 C -5,1 C
24.12.2010 10:30 -5,3 C 95 % 1001 hPa 0,0 l/m 0,0 km/h (0 Bft) N-NO 20 0 min 4,58 klux 0,00 min -6,0 C -5,3 C
24.12.2010 10:45 -5,3 C 95 % 1002 hPa 0,0 l/m 0,0 km/h (0 Bft) N-NO 20 0 min 5,43 klux 0,00 min -6,0 C -5,3 C
24.12.2010 11:00 -5,0 C 95 % 1002 hPa 0,0 l/m 0,0 km/h (0 Bft) N-NO 20 0 min 6,43 klux 0,00 min -5,7 C -5,0 C
24.12.2010 11:15 -5,1 C 95 % 1002 hPa 0,0 l/m 0,0 km/h (0 Bft) N-NO 20 0 min 7,68 klux 0,00 min -5,8 C -5,1 C
24.12.2010 11:30 -5,1 C 94 % 1002 hPa 0,0 l/m 0,0 km/h (0 Bft) N-NO 20 0 min 8,25 klux 0,00 min -5,9 C -5,1 C
24.12.2010 11:45 -5,1 C 94 % 1002 hPa 0,0 l/m 0,0 km/h (0 Bft) N-NO 20 0 min 10,0 klux 0,00 min -5,9 C -5,1 C
24.12.2010 12:00 -5,0 C 94 % 1002 hPa 0,0 l/m 0,0 km/h (0 Bft) N-NO 15 0 min 10,3 klux 0,00 min -5,8 C -5,0 C
24.12.2010 12:15 -5,1 C 93 % 1002 hPa 0,0 l/m 0,0 km/h (0 Bft) N-NO 15 0 min 10,6 klux 0,00 min -6,1 C -5,1 C
24.12.2010 12:29 -5,1 C 93 % 1002 hPa 0,0 l/m 0,0 km/h (0 Bft) N-NO 15 0 min 9,5 klux 0,00 min -6,1 C -5,1 C
24.12.2010 12:45 -5,1 C 93 % 1002 hPa 0,0 l/m 0,0 km/h (0 Bft) N-NO 15 0 min 10,4 klux 0,00 min -6,1 C -5,1 C
24.12.2010 13:00 -5,1 C 93 % 1002 hPa 0,0 l/m 0,0 km/h (0 Bft) N-NO 15 0 min 10,8 klux 0,00 min -6,1 C -5,1 C
24.12.2010 13:15 -5,1 C 93 % 1002 hPa 0,0 l/m 0,0 km/h (0 Bft) N-NO 15 0 min 10,6 klux 0,00 min -6,1 C -5,1 C
24.12.2010 13:30 -5,3 C 93 % 1003 hPa 0,0 l/m 0,0 km/h (0 Bft) N-NO 15 0 min 10,3 klux 0,00 min -6,2 C -5,3 C
24.12.2010 13:45 -5,3 C 93 % 1003 hPa 0,0 l/m 0,0 km/h (0 Bft) N-NO 15 0 min 10,7 klux 0,00 min -6,2 C -5,3 C
24.12.2010 14:00 -5,3 C 93 % 1003 hPa 0,0 l/m 0,0 km/h (0 Bft) N-NO 15 0 min 10,4 klux 0,00 min -6,2 C -5,3 C
24.12.2010 14:15 -5,5 C 93 % 1003 hPa 0,0 l/m 0,0 km/h (0 Bft) N-NO 15 0 min 9,3 klux 0,00 min -6,4 C -5,5 C
24.12.2010 14:30 -5,5 C 93 % 1003 hPa 0,0 l/m 0,0 km/h (0 Bft) N-NO 15 0 min 8,99 klux 0,00 min -6,4 C -5,5 C
24.12.2010 14:45 -5,6 C 93 % 1003 hPa 0,0 l/m 0,0 km/h (0 Bft) N-NO 15 0 min 8,41 klux 0,00 min -6,5 C -5,6 C
24.12.2010 15:00 -5,7 C 94 % 1003 hPa 0,0 l/m 0,0 km/h (0 Bft) N-NO 15 0 min 6,77 klux 0,00 min -6,5 C -5,7 C
24.12.2010 15:15 -5,9 C 94 % 1003 hPa 0,0 l/m 0,0 km/h (0 Bft) N-NO 15 0 min 5,73 klux 0,00 min -6,7 C -5,9 C
24.12.2010 15:30 -5,8 C 94 % 1003 hPa 0,0 l/m 0,0 km/h (0 Bft) N-NO 15 0 min 4,74 klux 0,00 min -6,6 C -5,8 C
24.12.2010 15:44 -5,9 C 94 % 1003 hPa 0,0 l/m 0,0 km/h (0 Bft) N-NO 15 0 min 4,03 klux 0,00 min -6,7 C -5,9 C
24.12.2010 16:00 -5,9 C 94 % 1003 hPa 0,0 l/m 0,0 km/h (0 Bft) N-NO 15 0 min 2,74 klux 0,00 min -6,7 C -5,9 C
24.12.2010 16:15 -6,0 C 94 % 1004 hPa 0,0 l/m 0,0 km/h (0 Bft) N-NO 15 0 min 1,49 klux 0,00 min -6,8 C -6,0 C
24.12.2010 16:30 -6,1 C 94 % 1004 hPa 0,0 l/m 0,0 km/h (0 Bft) N-NO 15 0 min 696 lux 0,00 min -6,9 C -6,1 C
24.12.2010 16:45 -6,2 C 94 % 1004 hPa 0,0 l/m 0,0 km/h (0 Bft) N-NO 15 0 min 225 lux 0,00 min -7,0 C -6,2 C
24.12.2010 17:00 -6,2 C 95 % 1004 hPa 0,0 l/m 0,0 km/h (0 Bft) N-NO 15 0 min 79 lux 0,00 min -6,9 C -6,2 C
24.12.2010 17:15 -6,3 C 95 % 1005 hPa 0,0 l/m 0,0 km/h (0 Bft) N-NO 15 0 min 15 lux 0,00 min -7,0 C -6,3 C
24.12.2010 17:29 -6,3 C 95 % 1005 hPa 0,0 l/m 0,0 km/h (0 Bft) N-NO 15 0 min 0 lux 0,00 min -7,0 C -6,3 C
24.12.2010 17:45 -6,4 C 95 % 1005 hPa 0,0 l/m 0,0 km/h (0 Bft) N-NO 15 0 min 0 lux 0,00 min -7,1 C -6,4 C
24.12.2010 18:00 -6,4 C 95 % 1005 hPa 0,0 l/m 0,0 km/h (0 Bft) N-NO 15 0 min 0 lux 0,00 min -7,1 C -6,4 C
24.12.2010 18:15 -6,4 C 94 % 1005 hPa 0,0 l/m 0,0 km/h (0 Bft) N-NO 15 0 min 0 lux 0,00 min -7,2 C -6,4 C
24.12.2010 18:30 -6,5 C 94 % 1005 hPa 0,0 l/m 0,0 km/h (0 Bft) N-NO 15 0 min 0 lux 0,00 min -7,3 C -6,5 C
24.12.2010 18:45 -6,6 C 94 % 1005 hPa 0,0 l/m 0,0 km/h (0 Bft) N-NO 15 0 min 0 lux 0,00 min -7,4 C -6,6 C
24.12.2010 19:00 -6,7 C 94 % 1006 hPa 0,0 l/m 0,0 km/h (0 Bft) N-NO 15 0 min 0 lux 0,00 min -7,5 C -6,7 C
24.12.2010 19:15 -6,7 C 94 % 1006 hPa 0,0 l/m 0,0 km/h (0 Bft) N-NO 15 0 min 0 lux 0,00 min -7,5 C -6,7 C
24.12.2010 19:30 -6,7 C 94 % 1006 hPa 0,0 l/m 0,0 km/h (0 Bft) N-NO 15 0 min 0 lux 0,00 min -7,5 C -6,7 C
24.12.2010 19:45 -6,7 C 94 % 1006 hPa 0,0 l/m 0,0 km/h (0 Bft) N-NO 15 0 min 0 lux 0,00 min -7,5 C -6,7 C
24.12.2010 20:00 -6,8 C 94 % 1007 hPa 0,0 l/m 0,0 km/h (0 Bft) N-NO 15 0 min 0 lux 0,00 min -7,6 C -6,8 C
24.12.2010 20:15 -6,9 C 94 % 1007 hPa 0,0 l/m 0,0 km/h (0 Bft) N-NO 15 0 min 0 lux 0,00 min -7,7 C -6,9 C
24.12.2010 20:30 -7,0 C 95 % 1007 hPa 0,0 l/m 0,0 km/h (0 Bft) N-NO 15 0 min 0 lux 0,00 min -7,7 C -7,0 C
24.12.2010 20:44 -7,1 C 95 % 1007 hPa 0,0 l/m 0,0 km/h (0 Bft) N-NO 15 0 min 0 lux 0,00 min -7,8 C -7,1 C
24.12.2010 21:00 -7,2 C 95 % 1007 hPa 0,0 l/m 0,0 km/h (0 Bft) N-NO 15 0 min 0 lux 0,00 min -7,9 C -7,2 C
24.12.2010 21:15 -7,2 C 95 % 1007 hPa 0,0 l/m 0,0 km/h (0 Bft) N-NO 15 0 min 0 lux 0,00 min -7,9 C -7,2 C
24.12.2010 21:30 -7,2 C 95 % 1008 hPa 0,0 l/m 0,0 km/h (0 Bft) N-NO 15 0 min 0 lux 0,00 min -7,9 C -7,2 C
24.12.2010 21:45 -7,3 C 95 % 1008 hPa 0,0 l/m 0,0 km/h (0 Bft) N-NO 15 0 min 0 lux 0,00 min -8,0 C -7,3 C
24.12.2010 22:00 -7,4 C 96 % 1008 hPa 0,0 l/m 0,0 km/h (0 Bft) N-NO 15 0 min 0 lux 0,00 min -7,9 C -7,4 C
24.12.2010 22:15 -7,5 C 96 % 1008 hPa 0,0 l/m 0,0 km/h (0 Bft) N-NO 15 0 min 0 lux 0,00 min -8,0 C -7,5 C
24.12.2010 22:29 -7,5 C 97 % 1008 hPa 0,0 l/m 0,0 km/h (0 Bft) N-NO 15 0 min 0 lux 0,00 min -7,9 C -7,5 C
24.12.2010 22:45 -7,5 C 97 % 1008 hPa 0,0 l/m 0,0 km/h (0 Bft) N-NO 15 0 min 0 lux 0,00 min -7,9 C -7,5 C
24.12.2010 23:00 -7,6 C 97 % 1008 hPa 0,0 l/m 0,0 km/h (0 Bft) N-NO 15 0 min 0 lux 0,00 min -8,0 C -7,6 C
24.12.2010 23:15 -7,6 C 97 % 1009 hPa 0,0 l/m 0,0 km/h (0 Bft) N-NO 15 0 min 0 lux 0,00 min -8,0 C -7,6 C
24.12.2010 23:30 -7,7 C 97 % 1009 hPa 0,0 l/m 0,0 km/h (0 Bft) N-NO 20 0 min 0 lux 0,00 min -8,1 C -7,7 C
24.12.2010 23:45 -7,7 C 97 % 1009 hPa 0,0 l/m 0,0 km/h (0 Bft) N-NO 20 0 min 0 lux 0,00 min -8,1 C -7,7 C
_ Min-Zeit 23:30 12:15 00:00 - 00:00 - - - - - 23:30 23:30
Minimum _ -7,7 C 93 % 997 hPa - 0,0 km/h (0 Bft) - - - - - -8,1 C -7,7 C
_ Max-Zeit 00:00 01:30 23:15 00:45 00:00 - - 00:00 13:00 00:45 00:00 00:00
Maximum _ -3,9 C 98 % 1009 hPa 0,3 l/m 0,0 km/h
N-NO (0 Bft)
- - 0 min 10,8 klux 15,00 min -4,3 C -3,9 C
Durchschnitt _ -5,6 C 95 % 1002 hPa #1,5 l/m 0,0 km/h (0 Bft) - - - #0 min. 2,15 klux #1:15 h -6,3 C -5,6 C